Tracking 30970 objects as of 3-Jul-2025
HD Live streaming from Space Station
objects crossing your sky now

STARLINK-4587

Track STARLINK-4587 now!
10-day predictions
STARLINK-4587 is classified as:


NORAD ID: 53635
Int'l Code: 2022-104AZ
Perigee: 546.1 km
Apogee: 547.7 km
Inclination: 53.2 °
Period: 95.4 minutes
Semi major axis: 6917 km
RCS: Unknown
Launch date: August 28, 2022
Source: United States (US)
Launch site: AIR FORCE EASTERN TEST RANGE (AFETR)
Your satellite tracking list
Your tracking list is empty




NASA's NSSDC Master Catalog

Two Line Element Set (TLE):
1 53635U 22104AZ  25183.94867061 -.00000140  00000-0  92823-5 0  9996
2 53635  53.2176 265.1985 0001166  85.8869 274.2257 15.08839478158525
Source of the keplerian elements: AFSPC